Location: *
(49.1466°N, 1.6216°E)
Time: 19:55:03
(UTC+00:00)

Cosmos 1980 Rocket - Pass Details

Date: 25 September 2023
Orbit: 829 x 849 km, 71.0° (Epoch: 10 December)

Event Time Altitude Azimuth Distance (km) Brightness Sun altitude
Rises 18:23:58 0° 250° (WSW) 3,388 6.6 -7.1°
Reaches altitude 10° 18:26:53 10° 264° (W) 2,461 6.2 -7.5°
Maximum altitude 18:31:24 24° 318° (NW) 1,683 4.5 -8.3°
Drops below altitude 10° 18:35:59 10° 11° (N) 2,481 4.6 -9.0°
Sets 18:38:56 0° 25° (NNE) 3,422 5.2 -9.5°
